Regional Weather Roundup
Issued by NWS

Home | Current Version | Previous Version | Text Only | Print | Product List | Glossary Off
Versions: 1 2 3 4 5 6 7 8 9 10 11 12 13 14 15 16 17 18 19 20 21 22 23 24 25 26 27 28 29 30 31 32 33 34 35 36 37 38 39 40 41 42 43 44 45 46 47 48 49 50

000
ASUS43 KDTX 231301
RWRMI
MICHIGAN HOURLY REGIONAL WEATHER ROUNDUP
NATIONAL WEATHER SERVICE DETROIT/PONTIAC MI
900 AM EDT SAT JUL 23 2016

NOTE: "FAIR" INDICATES FEW OR NO CLOUDS BELOW 12,000 FEET WITH NO
SIGNIFICANT WEATHER AND/OR OBSTRUCTION TO VISIBILITY.

MIZ047>049-052>055-059>063-066>070-074>076-081>083-231400-
SOUTHEAST LOWER MICHIGAN

CITY           SKY/WX    TMP DP  RH WIND       PRES   REMARKS
ADRIAN         SUNNY     76  71  85 NW6       30.02S
ALMA           MOSUNNY   74  73  96 W6        30.00S
ANN ARBOR      MOSUNNY   79  70  74 W6        30.00S
BAD AXE        SUNNY     75  67  76 W5        29.99R
CARO           MOSUNNY   76  69  78 W5        29.99R
DETROIT CITY   MOSUNNY   78  70  76 CALM      29.99S
DETROIT        MOSUNNY   80  68  66 CALM      30.00R
FLINT          CLOUDY    77  69  76 SW5       30.01R
GROSSE ILE     MOSUNNY   79  68  68 NW3       29.97F
HOWELL         MOSUNNY   74  69  84 NW5       30.03R

CITY           SKY/WX    TMP DP  RH WIND       PRES   REMARKS
JACKSON        SUNNY     75  70  84 NW5       30.03R
LAMBERTVILLE   SUNNY     79  71  76 CALM      30.01R
LANSING        MOSUNNY   73  67  81 W5        30.02R
LAPEER         FAIR      75  69  80 W7        30.01R
MASON          SUNNY     73  69  89 N5        30.03R
MONROE         SUNNY     77  72  85 CALM      29.99S
MT. CLEMENS    PTSUNNY   76  70  80 W5        29.97R
PONTIAC        MOSUNNY   74  68  81 NW6       30.01R
PORT HOPE        N/A     78  66  66 VRB5      29.95S
PORT HURON     PTSUNNY   75  68  78 NW3       29.98R
TRI CITIES     MOSUNNY   75  70  84 SW6       29.99S
MIDLAND        FAIR      75  67  75 W5        29.99R
TROY           CLOUDY    78  68  71 NW7       30.02R
SAGINAW HB     MOSUNNY   77  68  73 SW5       29.98S
$$
MIZ043>046-050>051-056>058-064>065-071>073-077>080-231400-
SOUTHWEST LOWER MICHIGAN

CITY           SKY/WX    TMP DP  RH WIND       PRES   REMARKS
BATTLE CREEK   SUNNY     73  70  90 CALM      30.03R
BENTON HARBOR  SUNNY     79  73  82 SE5       29.98F
BIG RAPIDS     SUNNY     73  72  97 CALM      30.00S
COLDWATER      MOSUNNY   71  71 100 CALM      30.02S FOG
FREMONT        FAIR      72  72 100 CALM      29.99F
HOLLAND        SUNNY     75  70  84 E3        30.00S
GRAND RAPIDS   PTSUNNY   75  69  81 CALM      30.00F HAZE
IONIA          FAIR      72  69  90 W3        30.00S FOG
KALAMAZOO      SUNNY     77  69  76 CALM      30.02R
LUDINGTON      SUNNY     73  71  92 CALM      29.97S
MARSHALL       SUNNY     73  72  98 CALM      30.02S
MOUNT PLEASANT SUNNY     77  71  81 W6        29.98S
MUSKEGON       PTSUNNY   73  69  87 CALM      29.98F
SOUTH HAVEN    SUNNY     76  75  96 CALM      29.99S
$$
MIZ016>042-231400-
NORTHERN LOWER MICHIGAN

CITY           SKY/WX    TMP DP  RH WIND       PRES   REMARKS
ALPENA         SUNNY     76  63  64 VRB5      29.98S
BEAVER ISLAND  SUNNY     74  66  74 N6        29.99R
BELLAIRE       SUNNY     72  67  82 CALM      29.99S
CADILLAC       MOSUNNY   76  67  73 CALM      30.00F
CHARLEVOIX     SUNNY     73  67  83 CALM      30.02R
FRANKFORT      MOSUNNY   76  70  83 CALM      29.98S
GAYLORD        SUNNY     74  64  71 CALM      30.01S
GRAYLING       SUNNY     74  67  80 CALM      30.01F
HARBOR SPRINGS SUNNY     72  67  84 CALM      29.99S
HOUGHTON LAKE  SUNNY     75  66  73 CALM      30.01F
MANISTEE       CLOUDY    71  67  87 CALM      29.98S
OSCODA         SUNNY     78  62  57 NW9G16    29.96S
PELLSTON       SUNNY     74  64  71 W6        30.00R
ROGERS CITY    SUNNY     75  62  62 NW9       30.00R
TRAVERSE CITY  CLOUDY    76  69  79 CALM      29.97S
$$
MIZ007>008-015-231400-
EASTERN UPPER MICHIGAN

CITY           SKY/WX    TMP DP  RH WIND       PRES   REMARKS
KINROSS        SUNNY     71  60  68 N6        29.99R
MACKINAC ISLAN SUNNY     71  62  72 NW3       30.00R
NEWBERRY       SUNNY     71  60  70 CALM      29.99S
S. S. MARIE    SUNNY     70  59  68 VRB3      29.98R
MUNISING         N/A     72  61  68 VRB5      29.99R
$$
MIZ004>006-011>014-085-231400-
CENTRAL UPPER MICHIGAN

CITY           SKY/WX    TMP DP  RH WIND       PRES   REMARKS
MANISTIQUE     SUNNY     71  62  71 N8        29.98S
ESCANABA       SUNNY     72  59  64 N5        29.98R
MENOMINEE      MOSUNNY   73  62  68 N5        30.00R
SAWYER-GWINN   SUNNY     70  57  64 CALM      30.02R
$$
MIZ001>003-009>011-084-231400-
WESTERN UPPER MICHIGAN

CITY           SKY/WX    TMP DP  RH WIND       PRES   REMARKS
IRON MOUNTAIN  SUNNY     71  58  63 NW5       30.01R
HOUGHTON       PTSUNNY   74  60  61 E6        30.00S
COPPER HARBOR    N/A     67  57  70 CALM      30.00S
IRONWOOD       SUNNY     66  64  94 E3        30.00F
$$

ABBREVIATIONS USED IN REMARKS
   TC - TEMPERATURE IN CELSIUS
  WCI - WIND CHILL INDEX
   HX - HEAT INDEX
  VSB - VISIBILITY





USA.gov is the U.S. government's official web portal to all federal, state and local government web resources and services.